This is the latest recevied weather packets stored in our database for station/object K1RTA. If no packets are shown the sender has not sent any weather packets the latest 10 day(s).
| Time | Temp. | Humidity | Pressure | Rain* | Wind** | Luminosity | Snow |
|---|---|---|---|---|---|---|---|
| 1788015334 | 24.44° C | 62% | 1023.1 hPa | 0 mm | - | - | - |
| 1788015034 | 24.44° C | 65% | 1023 hPa | 0 mm | - | - | - |
| 1788014733 | 23.89° C | 66% | 1023 hPa | 0 mm | - | - | - |
| 1788014433 | 23.89° C | 65% | 1023 hPa | 0 mm | - | - | - |
| 1788014133 | 23.89° C | 67% | 1022.9 hPa | 0 mm | - | - | - |
| 1788013833 | 23.89° C | 65% | 1022.7 hPa | 0 mm | - | - | - |
| 1788013533 | 24.44° C | 67% | 1022.8 hPa | 0 mm | - | - | - |
| 1788013233 | 24.44° C | 68% | 1022.7 hPa | 0 mm | - | - | - |
| 1788012932 | 24.44° C | 67% | 1022.6 hPa | 0 mm | - | - | - |
| 1788012632 | 24.44° C | 67% | 1022.5 hPa | 0 mm | - | - | - |
| 1788012333 | 24.44° C | 70% | 1022.5 hPa | 0 mm | - | - | - |
| 1788012033 | 23.89° C | 72% | 1022.5 hPa | 0 mm | - | - | - |
| 1788011733 | 23.89° C | 71% | 1022.5 hPa | 0 mm | - | - | - |
| 1788011433 | 23.89° C | 70% | 1022.4 hPa | 0 mm | - | - | - |
| 1788011132 | 23.89° C | 70% | 1022.5 hPa | 0 mm | - | - | - |
| 1788010832 | 23.33° C | 73% | 1022.3 hPa | 0 mm | - | - | - |
| 1788010532 | 23.33° C | 72% | 1022.2 hPa | 0 mm | - | - | - |
| 1788010234 | 23.33° C | 73% | 1022.3 hPa | 0 mm | - | - | - |
| 1788009934 | 22.78° C | 74% | 1022.2 hPa | 0 mm | - | - | - |
| 1788009634 | 22.78° C | 74% | 1022.1 hPa | 0 mm | - | - | - |
| 1788009332 | 22.22° C | 74% | 1021.9 hPa | 0 mm | - | - | - |
| 1788009032 | 22.22° C | 75% | 1022 hPa | 0 mm | - | - | - |
| 1788008733 | 22.22° C | 75% | 1021.9 hPa | 0 mm | - | - | - |
| 1788008433 | 21.67° C | 76% | 1021.9 hPa | 0 mm | - | - | - |
| 1788008133 | 21.67° C | 76% | 1021.9 hPa | 0 mm | - | - | - |
* Rain latest hour (hover to see other rain measurements)
** Current wind speed in m/s (hover to see current wind gust speed)